DAL5994 KJFK-EGLL

Flight info

Callsign DAL5994
Flight time N/A
Altitude 39000
Route BLATT DCT SUFFI DCT ALLEX DCT BUDAR/M085F390 DCT H5050 DCT H5145 DCT H5240 DCT 5335N DCT H5330 DCT H5329 DCT H5324 DCT H5319/N0486F390 DCT OLGON DCT MOMIN DCT KOMER DCT FITBO FITB2H3
Aircraft A359/H-SDE2E3GHIJ3J4J5LM1ORWXY/LB1D1

Departure

Time N/A
Airport John F. Kennedy International Airport (KJFK)

Arrival

Time 2026-05-03 20:46
Airport London Heathrow Airport (EGLL)
Time Latitude Longitude Altitude Speed Heading
2026-05-03 20:15 52.50302 -4.24210 38925 ft 497 kts 104°
2026-05-03 20:15 52.48689 -4.13182 38924 ft 497 kts 104°
2026-05-03 20:16 52.47066 -4.02167 38916 ft 497 kts 104°
2026-05-03 20:16 52.45433 -3.91150 38925 ft 497 kts 105°
2026-05-03 20:17 52.43788 -3.80140 38916 ft 498 kts 105°
2026-05-03 20:17 52.42132 -3.69131 38933 ft 497 kts 105°
2026-05-03 20:18 52.40467 -3.58139 38919 ft 497 kts 105°
2026-05-03 20:18 52.38791 -3.47147 38921 ft 498 kts 105°
2026-05-03 20:19 52.37106 -3.36166 38936 ft 497 kts 105°
2026-05-03 20:19 52.35409 -3.25192 38936 ft 497 kts 105°
2026-05-03 20:20 52.33703 -3.14231 38932 ft 497 kts 106°
2026-05-03 20:20 52.31987 -3.03279 38932 ft 498 kts 106°
2026-05-03 20:21 52.30272 -2.92402 38928 ft 497 kts 106°
2026-05-03 20:21 52.28535 -2.81465 38930 ft 498 kts 106°
2026-05-03 20:22 52.26787 -2.70525 38929 ft 498 kts 106°
2026-05-03 20:22 52.25029 -2.59601 38920 ft 498 kts 106°
2026-05-03 20:22 52.24148 -2.54149 38740 ft 494 kts 106°
2026-05-03 20:23 52.23272 -2.48743 37894 ft 496 kts 107°
2026-05-03 20:23 52.22384 -2.43281 36938 ft 499 kts 107°
2026-05-03 20:23 52.21481 -2.37813 36116 ft 499 kts 108°
2026-05-03 20:23 52.20449 -2.32413 35281 ft 499 kts 111°
2026-05-03 20:24 52.19366 -2.27032 34484 ft 499 kts 111°
2026-05-03 20:24 52.18287 -2.21665 33632 ft 499 kts 111°
2026-05-03 20:24 52.17215 -2.16292 32681 ft 498 kts 111°
2026-05-03 20:24 52.16148 -2.10927 31700 ft 498 kts 111°
2026-05-03 20:25 52.15082 -2.05562 30753 ft 497 kts 111°
2026-05-03 20:25 52.14018 -2.00212 29758 ft 497 kts 111°
2026-05-03 20:25 52.12954 -1.94867 28682 ft 492 kts 111°
2026-05-03 20:25 52.11913 -1.89640 27189 ft 481 kts 111°
2026-05-03 20:26 52.10882 -1.84487 25610 ft 477 kts 111°
2026-05-03 20:26 52.09862 -1.79401 24198 ft 470 kts 111°
2026-05-03 20:26 52.08854 -1.74390 22718 ft 462 kts 110°
2026-05-03 20:26 52.07863 -1.69474 21246 ft 453 kts 110°
2026-05-03 20:27 52.06890 -1.64655 19833 ft 444 kts 110°
2026-05-03 20:27 52.05937 -1.59948 18786 ft 431 kts 110°
2026-05-03 20:27 52.05011 -1.55384 18199 ft 423 kts 110°
2026-05-03 20:27 52.04096 -1.50894 17926 ft 408 kts 110°
2026-05-03 20:28 52.03246 -1.46709 17882 ft 375 kts 111°
2026-05-03 20:28 52.02435 -1.42732 17903 ft 369 kts 111°
2026-05-03 20:28 52.01624 -1.38787 17905 ft 365 kts 111°
2026-05-03 20:28 52.00851 -1.35009 17898 ft 342 kts 111°
2026-05-03 20:29 52.00110 -1.31403 17907 ft 334 kts 111°
2026-05-03 20:29 51.99375 -1.27842 17844 ft 331 kts 111°
2026-05-03 20:29 51.98648 -1.24324 17389 ft 329 kts 111°
2026-05-03 20:29 51.97917 -1.20800 16853 ft 330 kts 111°
2026-05-03 20:30 51.97191 -1.17297 16269 ft 326 kts 111°
2026-05-03 20:30 51.96467 -1.13805 15731 ft 327 kts 111°
2026-05-03 20:30 51.95596 -1.10483 15197 ft 312 kts 128°
2026-05-03 20:30 51.94108 -1.08044 14942 ft 309 kts 142°
2026-05-03 20:31 51.92423 -1.05815 14903 ft 308 kts 143°
2026-05-03 20:31 51.90767 -1.03631 14903 ft 307 kts 143°
2026-05-03 20:31 51.89149 -1.01463 14897 ft 294 kts 143°
2026-05-03 20:31 51.87622 -0.99393 14833 ft 279 kts 143°
2026-05-03 20:32 51.86171 -0.97405 14487 ft 277 kts 141°
2026-05-03 20:32 51.84930 -0.95012 14070 ft 281 kts 124°
2026-05-03 20:32 51.84009 -0.92223 13735 ft 280 kts 119°
2026-05-03 20:32 51.83149 -0.89358 13354 ft 278 kts 119°
2026-05-03 20:33 51.82319 -0.86587 12974 ft 277 kts 119°
2026-05-03 20:33 51.81479 -0.83805 12582 ft 275 kts 119°
2026-05-03 20:33 51.80637 -0.81036 12209 ft 274 kts 119°
2026-05-03 20:33 51.79801 -0.78294 11876 ft 270 kts 119°
2026-05-03 20:34 51.78974 -0.75594 11441 ft 265 kts 119°
2026-05-03 20:34 51.78159 -0.72939 11087 ft 263 kts 119°
2026-05-03 20:34 51.77352 -0.70313 10917 ft 260 kts 119°
2026-05-03 20:34 51.76545 -0.67698 10508 ft 261 kts 119°
2026-05-03 20:35 51.75734 -0.65068 10118 ft 262 kts 118°
2026-05-03 20:35 51.74923 -0.62440 9715 ft 259 kts 118°
2026-05-03 20:35 51.74121 -0.59844 9170 ft 258 kts 118°
2026-05-03 20:35 51.73323 -0.57264 8542 ft 255 kts 118°
2026-05-03 20:36 51.72416 -0.54832 7919 ft 250 kts 135°
2026-05-03 20:36 51.71177 -0.52913 7216 ft 247 kts 144°
2026-05-03 20:36 51.69869 -0.51128 6586 ft 243 kts 144°
2026-05-03 20:36 51.68609 -0.49376 6363 ft 241 kts 143°
2026-05-03 20:37 51.67343 -0.47598 6156 ft 240 kts 143°
2026-05-03 20:37 51.66101 -0.45822 5931 ft 238 kts 142°
2026-05-03 20:37 51.64870 -0.44041 5726 ft 238 kts 142°
2026-05-03 20:37 51.63648 -0.42262 5516 ft 237 kts 142°
2026-05-03 20:38 51.62429 -0.40483 5319 ft 236 kts 142°
2026-05-03 20:38 51.61215 -0.38708 5105 ft 235 kts 142°
2026-05-03 20:38 51.60007 -0.36943 4918 ft 235 kts 142°
2026-05-03 20:38 51.58798 -0.35175 4701 ft 234 kts 142°
2026-05-03 20:39 51.57594 -0.33415 4510 ft 233 kts 142°
2026-05-03 20:39 51.56411 -0.31685 4308 ft 233 kts 142°
2026-05-03 20:39 51.55198 -0.29916 4108 ft 232 kts 142°
2026-05-03 20:39 51.54001 -0.28172 3902 ft 232 kts 142°
2026-05-03 20:40 51.52802 -0.26426 3707 ft 232 kts 141°
2026-05-03 20:40 51.51633 -0.24720 3561 ft 225 kts 141°
2026-05-03 20:40 51.50507 -0.23066 3431 ft 213 kts 141°
2026-05-03 20:40 51.49444 -0.21495 3309 ft 202 kts 141°
2026-05-03 20:41 51.48417 -0.20032 3160 ft 194 kts 147°
2026-05-03 20:41 51.47209 -0.19442 3031 ft 180 kts 194°
2026-05-03 20:41 51.46283 -0.20542 2839 ft 166 kts 249°
2026-05-03 20:41 51.46279 -0.22294 2609 ft 156 kts 288°
2026-05-03 20:42 51.46474 -0.23990 2456 ft 154 kts 281°
2026-05-03 20:42 51.46564 -0.25696 2274 ft 153 kts 275°
2026-05-03 20:42 51.46769 -0.27327 2122 ft 150 kts 299°
2026-05-03 20:42 51.47367 -0.28694 1874 ft 150 kts 307°
2026-05-03 20:43 51.47718 -0.30246 1716 ft 151 kts 284°
2026-05-03 20:43 51.47821 -0.31913 1554 ft 147 kts 272°
2026-05-03 20:43 51.47790 -0.33502 1346 ft 139 kts 265°
2026-05-03 20:43 51.47794 -0.35019 1118 ft 131 kts 273°
2026-05-03 20:44 51.47792 -0.36470 994 ft 129 kts 264°
2026-05-03 20:44 51.47790 -0.37930 787 ft 131 kts 270°
2026-05-03 20:44 51.47780 -0.39386 627 ft 130 kts 268°
2026-05-03 20:44 51.47779 -0.40842 422 ft 130 kts 270°
2026-05-03 20:45 51.47770 -0.42264 254 ft 127 kts 268°
2026-05-03 20:45 51.47767 -0.43685 118 ft 127 kts 270°
2026-05-03 20:45 51.47759 -0.45004 100 ft 105 kts 270°
2026-05-03 20:45 51.47757 -0.45956 95 ft 65 kts 268°
2026-05-03 20:46 51.47752 -0.46441 95 ft 26 kts 264°
2026-05-03 20:46 51.47729 -0.46593 98 ft 5 kts 251°
2026-05-03 20:46 51.47713 -0.46665 97 ft 9 kts 250°
2026-05-03 20:46 51.47671 -0.46807 98 ft 17 kts 239°
2026-05-03 20:47 51.47606 -0.46893 96 ft 12 kts 206°
2026-05-03 20:47 51.47579 -0.46903 97 ft 3 kts 178°
2026-05-03 20:47 51.47523 -0.46898 97 ft 15 kts 163°
2026-05-03 20:47 51.47504 -0.46771 96 ft 13 kts 74°
2026-05-03 20:48 51.47515 -0.46615 95 ft 15 kts 91°
2026-05-03 20:48 51.47515 -0.46430 95 ft 18 kts 90°
2026-05-03 20:48 51.47515 -0.46216 92 ft 20 kts 90°
2026-05-03 20:48 51.47513 -0.46014 95 ft 19 kts 91°
2026-05-03 20:49 51.47516 -0.45896 92 ft 0 kts 89°
2026-05-03 20:49 51.47516 -0.45895 92 ft 1 kts 89°
2026-05-03 20:49 51.47517 -0.45801 94 ft 19 kts 83°
2026-05-03 20:49 51.47584 -0.45749 95 ft 3 kts 319°
2026-05-03 20:50 51.47593 -0.45806 96 ft 13 kts 279°
2026-05-03 20:50 51.47594 -0.45954 95 ft 9 kts 270°
2026-05-03 20:50 51.47581 -0.46053 97 ft 10 kts 241°
2026-05-03 20:50 51.47528 -0.46120 95 ft 12 kts 235°
2026-05-03 20:51 51.47517 -0.46253 92 ft 12 kts 268°
2026-05-03 20:51 51.47510 -0.46393 96 ft 12 kts 243°
2026-05-03 20:51 51.47479 -0.46410 93 ft 5 kts 183°
2026-05-03 20:51 51.47446 -0.46411 95 ft 4 kts 179°
2026-05-03 20:52 51.47435 -0.46411 95 ft 0 kts 179°
2026-05-03 20:52 51.47433 -0.46411 95 ft 0 kts 179°